Dewpoint
56 56 56 56 55 53 52 51 49 48 48 48 50 51 51 51 49 47 47 46 46 43
56 56 56 56 56 54 53 51 50 48 48 48 48 50 50 50 50 47 46 45 45 44
56 56 56 56 56 56 55 52 49 48 48 47 47 48 49 50 49 48 46 46 44 43
55 55 56 56 57 57 56 55 50 49 48 47 46 46 48 49 49 47 47 46 44 44
53 53 53 53 54 55 56 56 53 48 47 47 47 47 47 47 48 47 46 45 44 44
44 47 51 53 53 53 53 52 50 49 48 48 48 49 48 47 47 47 46 46 45 44
40 42 45 52 53 52 52 52 52 51 50 49 48 48 49 49 49 49 48 47 47 46
37 39 41 44 48 52 52 52 52 52 51 50 49 49 48 49 49 48 48 47 47 47
35 36 37 40 42 46 49 52 51 51 51 50 50 49 49 48 47 48 48 47 47 47
32 33 35 37 39 41 44 47 50 50 50 50 50 50 49 47 46 46 46 45 45 45
31 31 33 35 36 38 41 43 45 46 49 50 50 50 49 48 48 48 47 47 46 45
30 31 31 32 35 36 38 40 42 43 44 45 45 48 49 48 48 48 48 48 48 47
29 30 30 31 33 35 36 37 39 39 40 42 42 45 46 47 46 45 45 45 45 46
29 28 29 31 32 34 35 35 35 36 37 37 40 41 44 45 45 44 43 43 42 43
Wind_Speed
19 19 17 18 16 18 18 19 18 21 21 21 21 20 21 19 19 20 19 20 17 15
12 13 16 17 15 17 18 18 20 21 21 21 22 22 21 20 22 20 20 18 18 16
14 15 13 12 17 17 15 15 17 20 23 23 23 24 23 21 18 20 18 16 18 18
9 9 9 10 11 15 17 17 19 22 23 24 23 23 24 23 20 23 20 18 19 20
6 7 6 8 9 10 13 16 19 18 20 20 20 21 23 24 21 24 23 22 20 21
11 8 3 5 6 7 9 10 10 13 17 16 15 16 20 22 19 18 19 19 22 21
15 12 9 2 5 6 7 9 11 12 13 14 16 16 14 15 16 18 18 18 19 18
15 13 13 9 5 9 8 7 8 9 11 13 14 15 16 15 16 16 17 15 17 17
17 16 15 13 11 10 5 5 9 11 12 14 12 16 19 16 15 13 15 17 17 16
19 18 18 16 13 14 12 6 3 8 11 13 12 16 18 19 14 16 16 16 14 13
20 20 19 19 16 15 13 11 10 9 5 5 6 12 13 16 12 13 14 14 12 12
19 19 19 18 16 13 15 14 14 11 15 15 13 9 4 8 8 11 12 9 9 12
17 16 17 15 17 15 15 12 13 14 16 16 13 17 12 7 5 6 5 3 4 6
18 17 17 14 13 13 14 13 16 15 15 16 15 14 15 9 3 3 2 3 2 2
Wind_Direction
187 188 188 185 185 190 192 199 193 195 195 194 195 196 192 194 196 197 200 201 202 204
189 190 192 190 189 196 199 200 192 195 199 202 197 197 195 197 200 195 199 204 201 203
194 198 202 195 198 201 203 202 197 200 202 203 202 199 197 203 202 198 200 200 199 204
186 188 195 208 215 223 218 205 202 203 204 207 203 201 199 200 194 197 201 199 199 210
144 161 178 220 237 233 236 217 208 204 205 207 201 203 201 200 195 198 200 202 199 209
42 51 325 203 219 206 203 196 184 179 183 183 186 201 205 200 189 194 205 200 203 209
33 21 10 301 195 185 177 180 185 189 194 192 193 193 191 190 194 193 205 202 203 207
19 22 23 18 43 182 168 193 192 183 189 191 191 195 197 197 200 196 199 204 203 205
22 29 26 16 30 61 80 201 205 206 193 186 186 192 199 198 205 207 210 218 216 212
21 20 20 18 25 40 47 40 184 204 189 192 190 193 195 195 189 195 204 211 220 220
16 18 12 18 16 27 37 37 60 62 90 163 183 192 195 196 193 198 207 199 208 225
7 20 13 8 7 26 39 29 48 41 67 69 54 69 150 178 189 199 219 214 210 220
3 15 16 2 6 19 33 27 45 45 44 51 52 44 58 87 145 166 184 168 195 197
5 16 15 5 10 18 37 36 36 48 40 38 32 29 29 38 69 88 132 184 200 217